User: anonymous   Login
Location: Unspecified
(0.0000°N, 0.0000°E)
Time: 17:13:01
(UTC+00:00)
Language:

WGS 7 (USA 263) - Orbit

View from above orbital plane
View from above orbital plane
View from above satellite
View from above satellite

Ground track
Ground track

The orbit data is extracted from the following two-line orbital elements,

1 40746U 15036A   24110.71449425  .00000016  00000-0  00000-0 0  9997
2 40746   0.0165 261.2762 0000223 296.1743  83.0485  1.00270088 31963
Epoch (UTC): 19 April 2024 17:08:52
Eccentricity: 0.0000223
inclination: 0.0165°
perigee height: 35786 km
apogee height: 35787 km
right ascension of ascending node: 261.2762°
argument of perigee: 296.1743°
revolutions per day: 1.00270088
mean anomaly at epoch: 83.0485°
orbit number at epoch: 3196

The dashed part of the orbit path shows where the satellite is in the earth's shadow,  

DLR